Kosmos-2508

operational
NORAD ID: 40921 Int'l Des: 2015-050 Owner: VVKOV Country: RU
LEOCIRCULARPOLAR

Über Kosmos-2508

Beschreibung wird geladen...

Live-Position

3D-Globus wird geladen...

Nächste Überflüge

Höhenverlauf

Altitude vs Time

uPlot chart will show altitude changes over time

Zweizeiliger Elementsatz

1 40921U 15050B 26061.20878516 .00000089 00000-0 57520-3 0 9998
2 40921 82.4909 144.8243 0013088 253.5159 106.4483 12.42910040473559
Epoch: 2. März 2026 • Age: 26 hours

Aktueller Status

Höhe 1500.2 km
Geschwindigkeit 7.11 km/s
Subsatellitenpunkt -6.69°S, 50.87°W
Startdatum 23. Sept. 2015
Alter 10.4 years
Typ other

Technische Details

Klassifizierung Payload
Masse 280.00 kg
Trockenmasse 280.00 kg
Gesamtmasse 280.00 kg
Länge 1.60 m
Durchmesser 0.80 m
Spannweite 7.00 m
Form Cyl + Ant
Hersteller RESH
Bus-Typ Strela-3M
Phasenstatus In Orbit
Besitzer/Staat VVKOV/RU

Große Konstellationen

Loading constellations...